QPF
0.02 0.03 0.04 0.03 0.04 0.04 0.03 0.02 0.01 0.01 0.00 0.01 0.01 0.01 0.01 0.01 0.02 0.02 0.01 0.01 0.01 0.01 0.01 0.01 0.01 0.01 0.02 0.02 0.02 0.03 0.03 0.03 0.03 0.03 0.03 0.04 0.05 0.04
0.03 0.03 0.04 0.04 0.04 0.04 0.04 0.03 0.02 0.01 0.00 0.00 0.01 0.01 0.01 0.01 0.01 0.01 0.01 0.01 0.01 0.01 0.01 0.01 0.01 0.01 0.00 0.01 0.01 0.01 0.02 0.01 0.02 0.01 0.02 0.03 0.04 0.05
0.02 0.03 0.04 0.05 0.04 0.04 0.03 0.03 0.01 0.01 0.01 0.00 0.01 0.01 0.00 0.00 0.01 0.01 0.01 0.01 0.00 0.01 0.01 0.01 0.01 0.01 0.01 0.01 0.01 0.01 0.01 0.01 0.01 0.01 0.01 0.02 0.03 0.03
0.03 0.03 0.03 0.03 0.04 0.04 0.04 0.02 0.01 0.02 0.01 0.01 0.01 0.01 0.01 0.01 0.00 0.01 0.01 0.01 0.01 0.01 0.01 0.01 0.01 0.01 0.01 0.01 0.01 0.01 0.01 0.01 0.01 0.01 0.01 0.01 0.02 0.02
0.02 0.02 0.02 0.02 0.03 0.03 0.03 0.02 0.01 0.01 0.01 0.02 0.02 0.01 0.01 0.01 0.01 0.01 0.00 0.01 0.01 0.01 0.00 0.00 0.01 0.01 0.01 0.01 0.01 0.01 0.01 0.01 0.01 0.01 0.01 0.02 0.03 0.03
0.01 0.01 0.02 0.02 0.02 0.03 0.02 0.02 0.01 0.01 0.01 0.02 0.02 0.01 0.02 0.01 0.01 0.01 0.00 0.00 0.00 0.00 0.00 0.00 0.00 0.00 0.01 0.01 0.01 0.01 0.01 0.01 0.01 0.01 0.01 0.01 0.02 0.03
0.01 0.01 0.01 0.02 0.02 0.02 0.02 0.02 0.02 0.02 0.02 0.02 0.02 0.01 0.02 0.01 0.01 0.01 0.00 0.00 0.00 0.00 0.00 0.00 0.00 0.00 0.00 0.00 0.00 0.00 0.01 0.01 0.01 0.01 0.01 0.01 0.01 0.02
0.02 0.02 0.02 0.03 0.03 0.03 0.04 0.04 0.04 0.05 0.05 0.04 0.03 0.01 0.01 0.01 0.01 0.01 0.00 0.00 0.00 0.00 0.00 0.01 0.01 0.00 0.00 0.00 0.00 0.00 0.01 0.02 0.02 0.02 0.02 0.01 0.01 0.02
0.01 0.02 0.03 0.04 0.03 0.03 0.03 0.04 0.04 0.05 0.05 0.04 0.03 0.02 0.01 0.01 0.01 0.01 0.00 0.00 0.00 0.00 0.00 0.01 0.01 0.02 0.00 0.00 0.00 0.00 0.01 0.02 0.03 0.03 0.02 0.01 0.01 0.01
0.00 0.01 0.02 0.02 0.02 0.02 0.02 0.02 0.03 0.05 0.05 0.05 0.04 0.04 0.04 0.02 0.01 0.01 0.01 0.01 0.01 0.00 0.00 0.01 0.02 0.03 0.02 0.01 0.00 0.00 0.01 0.02 0.04 0.04 0.03 0.02 0.01 0.01
0.00 0.01 0.01 0.02 0.01 0.01 0.01 0.01 0.02 0.04 0.03 0.03 0.02 0.02 0.02 0.02 0.01 0.01 0.01 0.01 0.01 0.01 0.01 0.01 0.02 0.03 0.03 0.01 0.01 0.01 0.01 0.02 0.03 0.04 0.04 0.03 0.02 0.02
0.01 0.01 0.01 0.01 0.01 0.01 0.01 0.01 0.01 0.02 0.03 0.03 0.02 0.01 0.01 0.01 0.01 0.01 0.01 0.01 0.01 0.01 0.01 0.02 0.03 0.03 0.03 0.01 0.01 0.01 0.01 0.01 0.03 0.03 0.03 0.03 0.03 0.02
0.00 0.00 0.00 0.01 0.01 0.01 0.01 0.01 0.01 0.01 0.02 0.03 0.03 0.02 0.01 0.01 0.01 0.01 0.01 0.00 0.01 0.01 0.01 0.01 0.02 0.02 0.02 0.02 0.02 0.02 0.01 0.01 0.02 0.02 0.03 0.03 0.03 0.02
0.01 0.00 0.01 0.01 0.01 0.01 0.01 0.01 0.01 0.01 0.02 0.02 0.02 0.03 0.03 0.03 0.02 0.02 0.01 0.00 0.00 0.01 0.01 0.01 0.01 0.01 0.02 0.02 0.02 0.02 0.02 0.01 0.01 0.01 0.02 0.02 0.02 0.02
0.03 0.02 0.01 0.01 0.01 0.01 0.01 0.01 0.02 0.01 0.01 0.02 0.02 0.02 0.02 0.03 0.03 0.03 0.02 0.01 0.00 0.00 0.01 0.01 0.01 0.01 0.01 0.02 0.02 0.01 0.02 0.01 0.01 0.01 0.01 0.01 0.01 0.01
0.04 0.04 0.04 0.03 0.02 0.02 0.01 0.01 0.01 0.01 0.01 0.01 0.02 0.02 0.03 0.03 0.03 0.04 0.03 0.02 0.01 0.01 0.01 0.01 0.01 0.01 0.01 0.01 0.01 0.02 0.02 0.02 0.01 0.01 0.01 0.01 0.01 0.01
0.04 0.03 0.03 0.02 0.02 0.02 0.02 0.02 0.01 0.01 0.01 0.01 0.01 0.01 0.02 0.03 0.03 0.04 0.04 0.03 0.03 0.02 0.02 0.02 0.01 0.01 0.01 0.01 0.01 0.01 0.02 0.02 0.02 0.01 0.01 0.00 0.00 0.00
0.04 0.03 0.02 0.02 0.02 0.02 0.03 0.03 0.03 0.02 0.02 0.02 0.02 0.02 0.02 0.03 0.03 0.04 0.04 0.04 0.04 0.03 0.02 0.01 0.01 0.01 0.01 0.01 0.00 0.01 0.01 0.01 0.02 0.02 0.02 0.01 0.00 0.00
0.05 0.03 0.03 0.02 0.02 0.01 0.02 0.02 0.02 0.03 0.03 0.03 0.03 0.03 0.03 0.03 0.03 0.03 0.04 0.05 0.05 0.04 0.03 0.02 0.02 0.02 0.02 0.01 0.01 0.00 0.00 0.01 0.01 0.02 0.03 0.02 0.01 0.00
0.06 0.05 0.04 0.04 0.03 0.03 0.02 0.02 0.02 0.02 0.02 0.02 0.03 0.03 0.03 0.03 0.04 0.04 0.05 0.06 0.06 0.05 0.04 0.03 0.03 0.02 0.02 0.02 0.01 0.01 0.01 0.01 0.01 0.01 0.01 0.02 0.03 0.02
0.05 0.04 0.04 0.04 0.04 0.03 0.03 0.02 0.02 0.02 0.01 0.01 0.01 0.01 0.02 0.02 0.03 0.03 0.03 0.05 0.06 0.07 0.06 0.05 0.04 0.04 0.03 0.02 0.01 0.01 0.01 0.01 0.01 0.01 0.01 0.01 0.01 0.02
0.05 0.05 0.04 0.04 0.03 0.02 0.02 0.02 0.02 0.01 0.01 0.02 0.02 0.02 0.02 0.02 0.02 0.02 0.02 0.02 0.03 0.03 0.04 0.04 0.04 0.05 0.04 0.04 0.03 0.02 0.02 0.01 0.02 0.02 0.02 0.01 0.01 0.02
0.06 0.06 0.05 0.05 0.04 0.03 0.02 0.02 0.02 0.02 0.02 0.02 0.02 0.03 0.04 0.04 0.03 0.02 0.02 0.02 0.02 0.02 0.02 0.03 0.03 0.04 0.05 0.04 0.04 0.03 0.03 0.03 0.03 0.03 0.03 0.04 0.04 0.03
MSLP
1012.31 1012.23 1012.16 1012.06 1011.93 1011.73 1011.45 1011.09 1010.66 1010.17 1009.67 1009.16 1008.68 1008.26 1007.89 1007.60 1007.38 1007.21 1007.09 1006.99 1006.90 1006.79 1006.67 1006.53 1006.39 1006.24 1006.12 1006.02 1005.93 1005.83 1005.67 1005.39 1004.92 1004.19 1003.15 1001.79 1000.14 998.28
1012.21 1012.04 1011.86 1011.67 1011.43 1011.14 1010.78 1010.37 1009.91 1009.41 1008.91 1008.42 1007.97 1007.57 1007.23 1006.95 1006.73 1006.56 1006.43 1006.32 1006.21 1006.10 1005.99 1005.87 1005.75 1005.65 1005.57 1005.52 1005.48 1005.43 1005.33 1005.11 1004.72 1004.09 1003.20 1002.00 1000.54 998.90
1012.22 1011.96 1011.70 1011.42 1011.09 1010.72 1010.30 1009.83 1009.33 1008.82 1008.31 1007.83 1007.39 1007.00 1006.66 1006.37 1006.14 1005.95 1005.79 1005.65 1005.53 1005.42 1005.32 1005.22 1005.14 1005.08 1005.04 1005.04 1005.05 1005.05 1005.00 1004.85 1004.55 1004.05 1003.31 1002.30 1001.08 999.68
1012.30 1011.99 1011.67 1011.32 1010.93 1010.49 1010.01 1009.49 1008.96 1008.42 1007.90 1007.41 1006.96 1006.55 1006.19 1005.88 1005.61 1005.38 1005.18 1005.01 1004.87 1004.75 1004.65 1004.58 1004.53 1004.52 1004.53 1004.57 1004.63 1004.67 1004.68 1004.60 1004.38 1004.00 1003.42 1002.62 1001.62 1000.47
1012.40 1012.07 1011.71 1011.32 1010.89 1010.41 1009.88 1009.33 1008.76 1008.20 1007.65 1007.14 1006.66 1006.22 1005.82 1005.47 1005.15 1004.86 1004.61 1004.40 1004.22 1004.08 1003.99 1003.93 1003.92 1003.95 1004.01 1004.10 1004.20 1004.29 1004.34 1004.32 1004.19 1003.92 1003.49 1002.87 1002.09 1001.18
1012.49 1012.15 1011.79 1011.37 1010.91 1010.40 1009.84 1009.25 1008.66 1008.06 1007.49 1006.95 1006.44 1005.96 1005.52 1005.11 1004.73 1004.38 1004.07 1003.80 1003.59 1003.42 1003.32 1003.27 1003.28 1003.35 1003.45 1003.59 1003.73 1003.87 1003.97 1004.01 1003.96 1003.79 1003.49 1003.03 1002.44 1001.73
1012.55 1012.20 1011.82 1011.39 1010.90 1010.36 1009.77 1009.15 1008.53 1007.91 1007.31 1006.75 1006.22 1005.71 1005.24 1004.78 1004.35 1003.94 1003.57 1003.25 1002.98 1002.78 1002.65 1002.60 1002.62 1002.71 1002.85 1003.03 1003.22 1003.40 1003.56 1003.66 1003.69 1003.61 1003.43 1003.12 1002.69 1002.16
1012.56 1012.18 1011.77 1011.30 1010.77 1010.18 1009.56 1008.91 1008.26 1007.63 1007.03 1006.46 1005.92 1005.41 1004.92 1004.45 1003.99 1003.54 1003.12 1002.73 1002.41 1002.16 1002.00 1001.92 1001.94 1002.04 1002.20 1002.41 1002.65 1002.89 1003.11 1003.28 1003.38 1003.40 1003.33 1003.15 1002.87 1002.48
1012.50 1012.06 1011.59 1011.05 1010.46 1009.81 1009.14 1008.45 1007.78 1007.14 1006.55 1006.00 1005.49 1005.01 1004.55 1004.09 1003.62 1003.16 1002.70 1002.27 1001.89 1001.59 1001.37 1001.26 1001.25 1001.35 1001.52 1001.76 1002.05 1002.34 1002.63 1002.88 1003.07 1003.20 1003.24 1003.18 1003.04 1002.79
1012.37 1011.84 1011.27 1010.63 1009.95 1009.22 1008.48 1007.75 1007.05 1006.41 1005.84 1005.34 1004.89 1004.47 1004.07 1003.65 1003.22 1002.77 1002.30 1001.84 1001.42 1001.06 1000.79 1000.63 1000.59 1000.66 1000.84 1001.11 1001.44 1001.79 1002.15 1002.49 1002.78 1003.02 1003.17 1003.25 1003.23 1003.12
1012.18 1011.53 1010.83 1010.07 1009.27 1008.44 1007.61 1006.82 1006.10 1005.46 1004.92 1004.47 1004.10 1003.77 1003.45 1003.12 1002.75 1002.34 1001.89 1001.42 1000.96 1000.56 1000.24 1000.03 999.95 1000.00 1000.18 1000.47 1000.84 1001.25 1001.69 1002.12 1002.51 1002.85 1003.13 1003.33 1003.44 1003.46
1011.95 1011.16 1010.32 1009.43 1008.49 1007.54 1006.62 1005.76 1004.99 1004.35 1003.84 1003.44 1003.14 1002.90 1002.68 1002.44 1002.15 1001.80 1001.38 1000.92 1000.46 1000.03 999.68 999.43 999.32 999.36 999.54 999.84 1000.25 1000.73 1001.23 1001.74 1002.23 1002.67 1003.06 1003.37 1003.60 1003.75
1011.71 1010.80 1009.82 1008.79 1007.72 1006.65 1005.62 1004.67 1003.85 1003.18 1002.67 1002.30 1002.05 1001.89 1001.75 1001.59 1001.37 1001.08 1000.72 1000.29 999.84 999.42 999.05 998.80 998.68 998.71 998.90 999.23 999.67 1000.19 1000.76 1001.34 1001.90 1002.42 1002.89 1003.29 1003.63 1003.89
1011.52 1010.50 1009.41 1008.26 1007.06 1005.87 1004.73 1003.69 1002.79 1002.06 1001.51 1001.13 1000.90 1000.76 1000.66 1000.55 1000.39 1000.16 999.84 999.46 999.05 998.65 998.31 998.07 997.97 998.02 998.24 998.60 999.07 999.63 1000.24 1000.86 1001.46 1002.03 1002.55 1003.02 1003.42 1003.77
1011.44 1010.36 1009.18 1007.94 1006.64 1005.35 1004.10 1002.95 1001.95 1001.12 1000.49 1000.04 999.75 999.58 999.47 999.36 999.22 999.01 998.74 998.40 998.04 997.70 997.41 997.23 997.17 997.28 997.53 997.93 998.44 999.02 999.65 1000.28 1000.90 1001.48 1002.01 1002.50 1002.94 1003.34
1011.54 1010.42 1009.21 1007.91 1006.55 1005.16 1003.81 1002.55 1001.42 1000.47 999.71 999.13 998.73 998.45 998.26 998.09 997.92 997.71 997.46 997.17 996.87 996.59 996.38 996.28 996.31 996.48 996.80 997.24 997.78 998.38 999.01 999.63 1000.23 1000.78 1001.30 1001.77 1002.20 1002.62
1011.86 1010.76 1009.54 1008.23 1006.83 1005.38 1003.95 1002.57 1001.31 1000.20 999.27 998.52 997.94 997.50 997.17 996.89 996.64 996.39 996.13 995.86 995.62 995.43 995.32 995.32 995.44 995.70 996.09 996.59 997.16 997.77 998.38 998.97 999.53 1000.04 1000.50 1000.92 1001.32 1001.72
1012.44 1011.38 1010.20 1008.90 1007.50 1006.02 1004.52 1003.06 1001.66 1000.39 999.27 998.32 997.53 996.88 996.36 995.92 995.55 995.22 994.93 994.68 994.49 994.37 994.36 994.47 994.70 995.06 995.52 996.07 996.67 997.29 997.88 998.44 998.94 999.38 999.78 1000.14 1000.49 1000.85
1013.23 1012.24 1011.12 1009.87 1008.50 1007.02 1005.50 1003.96 1002.46 1001.04 999.74 998.59 997.58 996.72 995.99 995.37 994.86 994.43 994.08 993.82 993.66 993.62 993.69 993.90 994.23 994.68 995.22 995.83 996.45 997.07 997.65 998.17 998.62 999.00 999.34 999.64 999.93 1000.24
1014.18 1013.27 1012.23 1011.05 1009.73 1008.29 1006.77 1005.20 1003.64 1002.11 1000.67 999.34 998.14 997.08 996.16 995.37 994.71 994.18 993.77 993.49 993.35 993.35 993.50 993.78 994.20 994.72 995.33 995.97 996.62 997.25 997.81 998.30 998.72 999.05 999.34 999.59 999.83 1000.09
1015.20 1014.37 1013.41 1012.32 1011.08 1009.71 1008.23 1006.68 1005.09 1003.52 1001.99 1000.55 999.21 998.00 996.92 995.99 995.21 994.58 994.11 993.81 993.67 993.70 993.90 994.24 994.71 995.29 995.93 996.60 997.27 997.89 998.45 998.92 999.31 999.62 999.88 1000.09 1000.30 1000.52
1016.19 1015.43 1014.56 1013.56 1012.41 1011.13 1009.73 1008.25 1006.70 1005.14 1003.60 1002.11 1000.70 999.41 998.24 997.22 996.36 995.67 995.16 994.83 994.69 994.73 994.94 995.31 995.81 996.41 997.07 997.75 998.41 999.03 999.58 1000.04 1000.42 1000.72 1000.96 1001.16 1001.35 1001.54
1017.08 1016.38 1015.58 1014.67 1013.62 1012.45 1011.16 1009.78 1008.33 1006.85 1005.36 1003.90 1002.51 1001.21 1000.02 998.97 998.08 997.37 996.83 996.49 996.34 996.38 996.60 996.96 997.46 998.05 998.69 999.36 1000.00 1000.60 1001.14 1001.59 1001.97 1002.27 1002.51 1002.71 1002.89 1003.06
Thickness
5665 5664 5663 5662 5662 5661 5659 5657 5651 5645 5644 5647 5648 5651 5650 5650 5650 5649 5648 5647 5647 5646 5646 5646 5646 5646 5647 5647 5647 5647 5647 5647 5647 5647 5647 5647 5647 5647
5660 5659 5659 5658 5658 5657 5656 5654 5651 5647 5643 5644 5645 5646 5646 5645 5644 5644 5643 5642 5642 5641 5641 5641 5641 5641 5641 5640 5640 5640 5640 5640 5640 5640 5640 5640 5640 5640
5655 5655 5654 5654 5653 5652 5651 5650 5647 5645 5640 5640 5641 5641 5641 5640 5639 5639 5638 5637 5636 5636 5636 5635 5635 5635 5635 5634 5634 5634 5633 5633 5633 5633 5633 5633 5633 5634
5650 5649 5649 5649 5648 5647 5646 5645 5643 5642 5638 5635 5635 5635 5635 5635 5634 5633 5633 5632 5631 5631 5630 5630 5629 5629 5628 5628 5628 5627 5627 5627 5627 5626 5626 5626 5627 5627
5644 5644 5643 5643 5642 5641 5641 5640 5639 5638 5635 5632 5631 5630 5629 5629 5627 5627 5627 5625 5625 5625 5625 5624 5623 5623 5622 5622 5621 5621 5621 5620 5620 5620 5620 5620 5620 5620
5639 5639 5638 5638 5637 5636 5635 5634 5633 5632 5629 5627 5625 5624 5623 5622 5621 5619 5618 5619 5619 5619 5619 5618 5618 5617 5616 5616 5615 5614 5614 5614 5614 5613 5613 5613 5613 5613
5634 5633 5634 5633 5633 5632 5632 5629 5628 5625 5623 5621 5619 5618 5616 5615 5614 5614 5613 5612 5612 5612 5612 5612 5612 5611 5610 5610 5609 5609 5609 5608 5608 5607 5607 5607 5606 5606
5628 5627 5628 5628 5628 5627 5627 5626 5624 5621 5618 5615 5614 5612 5612 5611 5610 5609 5606 5604 5604 5606 5605 5605 5606 5605 5605 5605 5605 5604 5603 5603 5602 5601 5601 5600 5600 5600
5622 5622 5622 5622 5621 5620 5619 5619 5618 5617 5616 5613 5610 5609 5609 5608 5606 5603 5601 5600 5601 5602 5600 5599 5599 5599 5600 5600 5600 5599 5598 5597 5597 5596 5595 5595 5594 5594
5616 5616 5615 5615 5615 5614 5612 5611 5610 5609 5609 5608 5607 5606 5605 5604 5603 5601 5599 5597 5596 5596 5595 5593 5593 5593 5595 5595 5595 5594 5593 5592 5591 5590 5590 5589 5588 5588
5610 5610 5609 5609 5609 5608 5605 5603 5602 5601 5602 5601 5601 5600 5599 5598 5597 5593 5590 5588 5587 5588 5588 5587 5587 5587 5588 5589 5589 5589 5588 5587 5586 5585 5584 5582 5582 5581
5603 5603 5603 5603 5602 5601 5598 5595 5593 5593 5593 5592 5591 5591 5590 5589 5589 5588 5586 5582 5580 5580 5582 5581 5580 5579 5579 5582 5583 5583 5582 5581 5580 5579 5578 5576 5575 5574
5595 5595 5595 5595 5595 5593 5591 5589 5588 5586 5584 5582 5581 5581 5580 5580 5580 5580 5580 5578 5576 5576 5578 5576 5574 5572 5572 5573 5574 5575 5575 5575 5573 5573 5572 5571 5569 5568
5589 5588 5588 5587 5586 5584 5582 5581 5580 5577 5575 5573 5572 5571 5570 5570 5571 5572 5572 5572 5573 5573 5573 5572 5570 5568 5566 5565 5566 5567 5568 5568 5567 5566 5566 5565 5563 5562
5582 5581 5580 5579 5577 5575 5573 5572 5569 5567 5565 5562 5562 5562 5562 5563 5563 5564 5564 5564 5565 5566 5566 5566 5565 5564 5562 5561 5560 5560 5560 5560 5560 5560 5559 5558 5557 5556
5573 5572 5570 5568 5566 5565 5563 5561 5559 5558 5557 5555 5554 5554 5554 5554 5554 5555 5555 5555 5555 5557 5558 5559 5558 5558 5555 5555 5554 5554 5554 5554 5554 5553 5553 5552 5551 5551
5564 5561 5559 5556 5555 5553 5552 5550 5549 5548 5547 5546 5546 5545 5545 5545 5546 5546 5546 5546 5546 5547 5548 5549 5549 5549 5549 5548 5547 5548 5548 5548 5548 5547 5545 5545 5545 5545
5555 5551 5549 5547 5545 5544 5542 5540 5540 5539 5538 5538 5537 5537 5537 5537 5537 5538 5537 5537 5538 5539 5539 5539 5539 5538 5538 5540 5541 5541 5541 5541 5541 5541 5540 5539 5540 5540
5543 5541 5540 5538 5537 5535 5533 5532 5531 5530 5530 5530 5529 5529 5529 5530 5530 5530 5529 5529 5530 5530 5531 5530 5530 5530 5530 5532 5534 5535 5534 5534 5533 5533 5533 5533 5534 5536
5533 5531 5530 5529 5528 5526 5525 5524 5523 5522 5521 5521 5521 5521 5521 5521 5522 5521 5521 5521 5521 5522 5522 5522 5522 5523 5524 5526 5527 5527 5527 5527 5527 5526 5526 5526 5527 5528
5524 5523 5521 5520 5519 5518 5517 5515 5515 5514 5513 5513 5513 5513 5513 5513 5513 5513 5513 5513 5513 5513 5514 5515 5517 5517 5517 5516 5516 5518 5519 5520 5521 5520 5519 5518 5517 5518
5517 5515 5514 5513 5511 5510 5508 5507 5506 5505 5504 5504 5504 5504 5504 5504 5504 5505 5505 5504 5504 5505 5506 5507 5508 5508 5507 5508 5510 5511 5511 5511 5512 5512 5512 5512 5510 5510
5509 5508 5506 5505 5504 5502 5501 5499 5498 5497 5496 5495 5495 5495 5495 5495 5495 5496 5496 5496 5495 5496 5496 5497 5498 5498 5499 5500 5500 5501 5502 5501 5501 5501 5502 5503 5504 5504